Tracking 20092 objects as of 14-Dec-2019
HD Live streaming from Space Station
objects crossing your sky now

FENGYUN 1C DEB

Track FENGYUN 1C DEB now!
10-day predictions


NORAD ID: 37423
Int'l Code: 1999-025EGR
Perigee: 855.0 km
Apogee: 931.8 km
Inclination: 99.0 °
Period: 102.7 minutes
Semi major axis: 7264 km
RCS: 0.0095 m2 (small)
Launch date: May 10, 1999
Source: People's Republic of China (PRC)
Launch site: Taiyaun Space Center, China (TSC)

Note: This is SATELLITE DEBRIS
aabbcc
Your satellite tracking list
Your tracking list is empty




NASA's NSSDC Master Catalog

Two Line Element Set (TLE):
1 37423U 99025EGR 19346.42404705 +.00000001 +00000-0 +28571-4 0  9991
2 37423 098.9856 052.9881 0052828 157.4707 202.8795 14.02179116328496
Source of the keplerian elements: AFSPC